Location: Aultman
(40.9284°N, 81.4173°W)
Time: 09:00:29
(UTC+00:00)

COSMOS 2406 - Pass Details

Date: 24 January 2021
Orbit: 841 x 865 km, 71.0° (Epoch: 02 March)

Event Time Altitude Azimuth Distance (km) Brightness Sun altitude
Rises 23:29:31 0° 345° (NNW) 3,456 6.4 -10.8°
Reaches altitude 10° 23:32:25 10° 358° (N) 2,514 5.5 -11.3°
Maximum altitude 23:37:12 26° 54° (NE) 1,639 4.2 -12.2°
Enters shadow 23:41:09 13° 105° (ESE) 2,269 4.9 -12.9°
